Regional Weather Roundup
Issued by NWS

Home | Current Version | Previous Version | Graphics & Text | Print | Product List | Glossary On
Versions: 1 2 3 4 5 6 7 8 9 10 11 12 13 14 15 16 17 18 19 20 21 22 23 24 25 26 27
000
ASUS45 KPSR 271010
RWRAZ

ARIZONA HOURLY REGIONAL WEATHER ROUNDUP
NATIONAL WEATHER SERVICE PHOENIX AZ
300 AM MST SAT AUG 27 2016

NOTE: FAIR INDICATES FEW OR NO CLOUDS BELOW 12,000 FEET WITH NO
SIGNIFICANT WEATHER AND/OR OBSTRUCTIONS TO VISIBILITY.

AZZ001>003-036-271100-
NORTHWEST ARIZONA

CITY           SKY/WX    TMP DP  RH WIND       PRES   REMARKS
BULLHEAD CITY  FAIR      79  64  61 CALM      29.88F
KINGMAN        LGT RAIN  64  57  78 E16       30.07R
$$

AZZ004>008-015-016-018-271100-
NORTH CENTRAL ARIZONA

CITY           SKY/WX    TMP DP  RH WIND       PRES   REMARKS
GRAND CANYON   MOCLDY    57  48  72 NE9       30.22F
PRESCOTT       FAIR      59  56  89 SW3       30.11F
FLAGSTAFF      MOCLDY    48  47  96 CALM      30.24S
PAYSON         MOCLDY    61  50  67 CALM      30.15F
PAGE           CLOUDY    64  52  64 W3        30.10F
$$

AZZ009>014-017-271100-
NORTHEAST ARIZONA

CITY           SKY/WX    TMP DP  RH WIND       PRES   REMARKS
WINSLOW        CLOUDY    58  54  86 S5        30.14S
SAINT JOHNS    FAIR      53  48  83 S6        30.18F
WINDOW ROCK    FAIR      50  45  83 CALM      30.24F
SHOW LOW       FAIR      50  46  87 CALM      30.23S
$$

AZZ023-271100-
GREATER PHOENIX AREA

CITY           SKY/WX    TMP DP  RH WIND       PRES   REMARKS
PHOENIX        FAIR      87  57  35 NE7       29.84R
BUCKEYE        MOCLDY    81  59  47 NW3       29.86R
LUKE AFB       FAIR      81  59  46 VRB2      29.84R
DEER VALLEY    FAIR      80  58  46 E3        29.86R
SCOTTSDALE     FAIR      83  57  41 SW5       29.88R
MESA-GATEWAY   FAIR      79  59  50 E9        29.87S
$$

AZZ027-028-271100-
SOUTHWEST MARICOPA COUNTY AND PINAL COUNTY

CITY           SKY/WX    TMP DP  RH WIND       PRES   REMARKS
CASA GRANDE    FAIR      81  54  39 S13       29.89S
GILA BEND      FAIR      78  62  57 E5        29.83S
$$

AZZ503-504-507>509-271100-
SOUTHEAST ARIZONA

CITY           SKY/WX    TMP DP  RH WIND       PRES   REMARKS
TUCSON         FAIR      75  56  51 SE3       29.99S
DAVIS-MONTHAN  FAIR      73  58  59 SE6       29.98S
NOGALES        FAIR      63  52  67 CALM      30.08R
SIERRA VISTA   FAIR      66  51  59 CALM      30.12S
DOUGLAS        CLOUDY    63  57  81 SW3       30.08S
SAFFORD        FAIR      64  58  80 NE6       30.01F
$$

AZZ020-021-025-026-031-271100-
SOUTHWEST ARIZONA

CITY           SKY/WX    TMP DP  RH WIND       PRES   REMARKS
YUMA           FAIR      84  63  49 E8        29.77S
$$

CAZ031-033-041-043-047-048-061-271100-
SOUTHERN CALIFORNIA

CITY           SKY/WX    TMP DP  RH WIND       PRES   REMARKS
DOWNTOWN L.A.  CLOUDY    66  58  75 CALM      29.95F
L.A. AIRPORT   CLOUDY    66  59  78 CALM      29.96S
SAN DIEGO      CLOUDY    68  57  68 W6        29.96S
BURBANK        CLOUDY    62  57  83 NE5       29.96S
ONTARIO        FAIR      61  56  83 SW6       29.96S
RIVERSIDE      MOCLDY    62  56  80 W3        29.97S
PALM SPRINGS   FAIR      78  52  40 W7        29.81F
EL CENTRO NAS  FAIR      76  50  40 SE7       29.77S
IMPERIAL       FAIR      80  61  52 SE5       29.76S
BLYTHE         FAIR      85  55  35 S5        29.80R
$$

NVZ020-UTZ003-271100-
SOUTHERN NEVADA-UTAH

CITY           SKY/WX    TMP DP  RH WIND       PRES   REMARKS
LAS VEGAS      FAIR      79  49  34 E18       29.93R
SALT LAKE CITY FAIR      65  34  31 S3        30.03R
$$

NMZ009-TXZ055-271100-
NEW MEXICO-WEST TEXAS

CITY           SKY/WX    TMP DP  RH WIND       PRES   REMARKS
ALBUQUERQUE    MOCLDY    64  49  57 CALM      30.17S
EL PASO        FAIR      72  59  63 N10       30.08F
$$


........................KEY........................
SKY/WX - SKY CONDITION/WEATHER
TMP    - TEMPERATURE IN FAHRENHEIT
DP     - DEW POINT IN FAHRENHEIT
RH     - RELATIVE HUMIDITY IN PERCENT
WIND   - DIRECTION AND SPEED IN MILES PER HOUR (MPH)
VRB    - VARIABLE WIND DIRECTION
PRES   - MEAN SEA LEVEL PRESSURE IN INCHES OF MERCURY
         F - FALLING PRESSURE   R - RISING PRESSURE
         S - STEADY PRESSURE
VSB    - VISIBILITY IN MILES
HX     - HEAT INDEX IN FAHRENHEIT
WCI    - WIND CHILL INDEX IN FAHRENHEIT
TC     - TEMPERATURE IN CELSIUS WHICH IS ALSO KNOWN AS
         TEMPERATURE IN CENTIGRADE
AFB    - AIR FORCE BASE
         LUKE AFB IS LUKE AIR FORCE BASE
         DAVIS-MONTHAN IS DAVIS-MONTHAN AIR FORCE BASE
NAS    - NAVAL AIR STATION
         EL CENTRO NAS IS EL CENTRO NAVAL AIR STATION
N/A    - NOT AVAILABLE





USA.gov is the U.S. government's official web portal to all federal, state and local government web resources and services.